Weather in Warsaw

Poland     52˚13′55″N   21˚00′25″E
temp.,
°C
wind,
m/s
gust,
m/s
humid.,
%
clouds,
%
prec.,
mm/h
press.,
hPa
HPBL,
m
1 december, tue
tue101:00s358692 0.1 1024257
04:00−1˚sse368361 0.0 1023315
07:00sse487847 0.0 1023403
10:00+1˚sse47648 0.0 1024412
13:00+2˚se47614 0.0 1024517
16:00+1˚se38670 0.0 1024520
19:00se48670 0.0 1026382
22:00se38690 0.0 1026400
2 december, wed
wed201:00−1˚ese37680 0.0 1027341
04:00−1˚ese48660 0.0 1026383
07:00−1˚se49690 0.0 1027401
10:00se48610 0.0 1026441
13:00+1˚ese47620 0.0 1025497
16:00−1˚ese49750 0.0 1023444
19:00−1˚se410820 0.0 1022511
22:00−1˚se498627 0.0 1021531
3 december, thu
thu301:00se598161 0.0 1020589
04:00−1˚se588096 0.0 1018523
07:00−1˚se4107971 0.0 1017495
10:00se5107033 0.0 1015481
13:00+1˚se4106249 0.0 1014554
16:00+1˚se5126798 0.0 1012492
19:00+1˚se5126999 0.0 1011522
22:00+1˚se51366100 0.0 1009512
4 december, fri
fri401:00+2˚se51362100 0.0 1008519
04:00+1˚se6136590 0.0 1006467
07:00+1˚se7147396 0.0 1005431
10:00+3˚se7147494 0.0 1005466
13:00+5˚se6137996 0.0 1003522
16:00+5˚se6167599 0.0 1002663
19:00+6˚se6167099 0.1 1003789
22:00+5˚sse7167942 0.0 1004634
5 december, sat
sat501:00+5˚sse6168071 0.0 1004503
04:00+5˚sse6168233 0.0 1005563
07:00+5˚se7168248 0.0 1005543
10:00+8˚sse71771100 0.0 1006675
13:00+10˚sse7156398 0.0 1005797
16:00+9˚se61668100 0.0 1006817
19:00+9˚se7177197 0.0 1006599
22:00+7˚se6148221 0.0 1007425